Pineville, WV

5:37 AM EST on November 15, 2019 (GMT -0500)
Pineville

Weather History for KI16 - October, 2019

Change the Weather History Date:

Monday, October 14, 2019

  Actual Average (KBKW) Record (KBKW)
Temperature  
Mean Temperature 54 °F 54 °F  
Max Temperature 72 °F 64 °F 82 °F (1954)
Min Temperature 36 °F 44 °F 21 °F (1934)
Degree Days  
Heating Degree Days 11 12  
Month to date heating degree days 137  
Since 1 July heating degree days 271  
Cooling Degree Days 0 0  
Month to date cooling degree days 2  
Year to date cooling degree days 552  
Growing Degree Days 4 (Base 50)    
Moisture  
Dew Point 39 °F    
Average Humidity 71    
Maximum Humidity 99    
Minimum Humidity 24    
Precipitation  
Precipitation 0.00 in 0.08 in 1.56 in (1944)
Month to date precipitation 1.14  
Year to date precipitation 33.81  
Snow  
Snow 0.00 in 0.00 in T in (1977)
Month to date snowfall 0.0  
Since 1 September snowfall 0.0  
Snow Depth -    
Sea Level Pressure  
Sea Level Pressure 30.15 in    
Wind  
Wind Speed - (North)    
Max Wind Speed -    
Max Gust Speed -    
Visibility 10 miles    
Events      
T = Trace of Precipitation, MM = Missing Value Source: NWS Daily Summary

Daily Weather History Graph

Daily Weather History Graph

Search for Another Location

Airport or City:

Astronomy

Oct. 14, 2019 Rise Set
Actual Time 7:33 AM EDT 6:50 PM EDT
Civil Twilight 7:06 AM EDT 7:16 PM EDT
Nautical Twilight 6:36 AM EDT 7:47 PM EDT
Astronomical Twilight 6:06 AM EDT 8:17 PM EDT
Moon 7:40 PM EDT (10/14) 8:04 AM EDT (10/14)
Length of Visible Light 12h 10m
Length of Day
11h 17m
Waxing Gibbous, 99% of the Moon is Illuminated
Oct 14
Waxing Gibbous
Oct 21
Last Quarter
Oct 27
New
Nov 4
First Quarter
Nov 12
Full

Hourly Weather History & Observations

Time (EDT) Temp. Dew Point Humidity Pressure Visibility Wind Dir Wind Speed Gust Speed Precip Events Conditions
12:15 AM 43.0 °F 41.0 °F 93% 30.09 in 10.0 mi North - - N/A   Clear
12:35 AM 42.8 °F 41.0 °F 93% 30.10 in 10.0 mi North - - N/A   Clear
12:55 AM 42.6 °F 40.6 °F 93% 30.10 in 10.0 mi North - - N/A   Unknown
1:15 AM 42.1 °F 40.1 °F 93% 30.11 in 10.0 mi North - - N/A   Unknown
1:35 AM 42.1 °F 40.5 °F 94% 30.11 in 10.0 mi North - - N/A   Unknown
1:55 AM 41.5 °F 39.7 °F 93% 30.11 in 10.0 mi North - - N/A   Unknown
2:15 AM 41.4 °F 39.7 °F 94% 30.11 in 10.0 mi North - - N/A   Unknown
2:35 AM 41.0 °F 39.4 °F 94% 30.11 in 10.0 mi North - - N/A   Unknown
2:55 AM 40.6 °F 39.4 °F 95% 30.11 in 10.0 mi North - - N/A   Unknown
3:15 AM 40.5 °F 39.2 °F 95% 30.11 in 10.0 mi North - - N/A   Clear
3:35 AM 40.1 °F 38.8 °F 95% 30.11 in 10.0 mi North - - N/A   Clear
3:55 AM 40.1 °F 38.8 °F 95% 30.11 in 10.0 mi North - - N/A   Clear
4:15 AM 39.4 °F 38.3 °F 96% 30.11 in 10.0 mi North - - N/A   Clear
4:35 AM 39.2 °F 38.3 °F 97% 30.11 in 10.0 mi North - - N/A   Clear
4:55 AM 39.2 °F 38.3 °F 97% 30.12 in 10.0 mi North - - N/A   Unknown
5:15 AM 39.0 °F 38.1 °F 97% 30.12 in 10.0 mi North - - N/A   Unknown
5:35 AM 38.5 °F 37.8 °F 97% 30.13 in 10.0 mi North - - N/A   Unknown
5:55 AM 37.9 °F 37.2 °F 97% 30.13 in 10.0 mi North - - N/A   Unknown
6:15 AM 37.8 °F 37.0 °F 97% 30.14 in 10.0 mi North - - N/A   Unknown
6:35 AM 37.4 °F 36.7 °F 97% 30.15 in 10.0 mi North - - N/A   Unknown
6:55 AM 37.0 °F 36.5 °F 98% 30.15 in 10.0 mi North - - N/A   Unknown
7:15 AM 37.0 °F 36.5 °F 98% 30.16 in 10.0 mi North - - N/A   Unknown
7:35 AM 36.9 °F 36.3 °F 98% 30.16 in 10.0 mi North - - N/A   Unknown
7:55 AM 36.5 °F 36.0 °F 98% 30.16 in 10.0 mi North - - N/A   Unknown
8:15 AM 36.7 °F 36.3 °F 99% 30.17 in 10.0 mi North - - N/A   Clear
8:35 AM 37.4 °F 37.0 °F 99% 30.18 in 10.0 mi North - - N/A   Clear
8:55 AM 38.5 °F 38.1 °F 99% 30.18 in 10.0 mi North - - N/A   Clear
9:15 AM 40.5 °F 39.7 °F 97% 30.19 in 10.0 mi North - - N/A   Clear
9:35 AM 44.4 °F 43.2 °F 95% 30.19 in 10.0 mi North - - N/A   Clear
9:55 AM 48.4 °F 44.8 °F 87% 30.20 in 10.0 mi North - - N/A   Clear
10:15 AM 50.2 °F 46.0 °F 86% 30.21 in 10.0 mi North - - N/A   Unknown
10:35 AM 52.0 °F 47.3 °F 84% 30.21 in 10.0 mi North - - N/A   Unknown
11:00 AM 57.6 °F 44.1 °F 61% 30.20 in 10.0 mi North - - N/A   Unknown
11:15 AM 59.0 °F 43.2 °F 56% 30.20 in 10.0 mi North - - N/A   Unknown
11:35 AM 61.3 °F 39.4 °F 44% 30.20 in 10.0 mi North - - N/A   Clear
11:55 AM 61.9 °F 38.8 °F 43% 30.19 in 10.0 mi North - - N/A   Clear
12:15 PM 63.9 °F 38.1 °F 39% 30.19 in 10.0 mi North - - N/A   Clear
12:35 PM 64.4 °F 38.1 °F 38% 30.18 in 10.0 mi North - - N/A   Clear
12:55 PM 65.1 °F 36.7 °F 35% 30.18 in 10.0 mi North - - N/A   Clear
1:15 PM 66.2 °F 35.2 °F 32% 30.17 in 10.0 mi North - - N/A   Clear
1:35 PM 67.1 °F 34.7 °F 30% 30.16 in 10.0 mi North - - N/A   Clear
1:55 PM 68.2 °F 35.8 °F 30% 30.15 in 10.0 mi North - - N/A   Clear
2:15 PM 68.7 °F 35.4 °F 29% 30.14 in 10.0 mi North - - N/A   Clear
2:35 PM 70.9 °F 34.5 °F 26% 30.14 in 10.0 mi North - - N/A   Clear
2:55 PM 71.4 °F 34.0 °F 25% 30.14 in 10.0 mi North - - N/A   Clear
3:15 PM 70.9 °F 32.9 °F 25% 30.13 in 10.0 mi North - - N/A   Clear
3:35 PM 71.6 °F 32.9 °F 24% 30.12 in 10.0 mi North - - N/A   Clear
3:55 PM 71.4 °F 32.5 °F 24% 30.13 in 10.0 mi North - - N/A   Clear
4:15 PM 72.0 °F 33.3 °F 24% 30.12 in 10.0 mi North - - N/A   Clear
4:35 PM 72.1 °F 34.7 °F 25% 30.12 in 10.0 mi North - - N/A   Clear
4:55 PM 71.1 °F 35.8 °F 27% 30.12 in 10.0 mi North - - N/A   Clear
5:15 PM 66.6 °F 36.0 °F 32% 30.12 in 10.0 mi North - - N/A   Clear
5:35 PM 64.0 °F 40.3 °F 42% 30.12 in 10.0 mi North - - N/A   Clear
5:55 PM 62.6 °F 41.7 °F 46% 30.12 in 10.0 mi North - - N/A   Clear
6:15 PM 59.9 °F 41.4 °F 50% 30.12 in 10.0 mi North - - N/A   Clear
6:35 PM 58.5 °F 41.5 °F 53% 30.13 in 10.0 mi North - - N/A   Clear
6:55 PM 57.4 °F 44.1 °F 61% 30.13 in 10.0 mi North - - N/A   Clear
7:15 PM 55.4 °F 44.4 °F 67% 30.14 in 10.0 mi North - - N/A   Clear
7:35 PM 54.0 °F 43.9 °F 69% 30.14 in 10.0 mi North - - N/A   Clear
7:55 PM 52.3 °F 43.2 °F 71% 30.15 in 10.0 mi North - - N/A   Clear
8:15 PM 51.3 °F 43.0 °F 73% 30.16 in 10.0 mi North - - N/A   Clear
8:35 PM 50.4 °F 42.4 °F 74% 30.16 in 10.0 mi North - - N/A   Clear
8:55 PM 48.9 °F 42.3 °F 78% 30.16 in 10.0 mi North - - N/A   Clear
9:15 PM 48.2 °F 42.1 °F 79% 30.17 in 10.0 mi North - - N/A   Clear
9:35 PM 47.1 °F 41.7 °F 81% 30.18 in 10.0 mi North - - N/A   Clear
9:55 PM 47.1 °F 41.5 °F 81% 30.18 in 10.0 mi North - - N/A   Clear
10:15 PM 46.8 °F 41.2 °F 81% 30.19 in 10.0 mi North - - N/A   Clear
10:35 PM 46.0 °F 41.0 °F 83% 30.19 in 10.0 mi North - - N/A   Clear
10:55 PM 44.8 °F 41.0 °F 87% 30.19 in 10.0 mi North - - N/A   Clear
11:15 PM 44.6 °F 41.2 °F 88% 30.19 in 10.0 mi North - - N/A   Clear
11:35 PM 44.6 °F 40.8 °F 87% 30.19 in 10.0 mi North - - N/A   Clear
11:55 PM 44.2 °F 40.8 °F 88% 30.20 in 10.0 mi North - - N/A   Clear